Regional Weather Roundup
Issued by NWS Raleigh/Durham, NC

Home | Current Version | Previous Version | Text Only | Print | Product List | Glossary On
Versions: 1 2 3 4 5 6 7 8 9 10 11 12 13 14 15 16 17 18 19 20 21 22 23 24 25 26 27 28 29 30 31 32 33 34 35 36 37 38 39 40 41 42 43 44 45 46 47 48 49 50
000
ASUS42 KRAH 291110
RWRRAH
NORTH CAROLINA WEATHER ROUNDUP
NATIONAL WEATHER SERVICE RALEIGH NC
600 AM EST MON DEC 29 2014

NOTE: "FAIR" INDICATES FEW OR NO CLOUDS BELOW 12,000 FEET WITH NO
SIGNIFICANT WEATHER AND/OR OBSTRUCTIONS TO VISIBILITY.

NCZ001-053-055-056-065-067-291200-
WESTERN NORTH CAROLINA

CITY           SKY/WX    TMP DP  RH WIND       PRES   REMARKS
ASHEVILLE      LGT RAIN  49  48  97 CALM      30.04S
JEFFERSON      RAIN      45  44  99 CALM      30.03R VSB 1
MORGANTON      RAIN      51  51 100 CALM      30.08R VSB 3/4
HICKORY        RAIN      52  51  97 VRB3      30.03S FOG
RUTHERFORDTON  RAIN      52  52 100 S6        30.06R
MOUNT AIRY     RAIN      50  48  93 E5        30.05F
BOONE          RAIN      46  46  98 W8        30.03S
$$

NCZ021-022-025-041-071-084-088-291200-
CENTRAL NORTH CAROLINA

CITY           SKY/WX    TMP DP  RH WIND       PRES   REMARKS
CHARLOTTE      RAIN      54  52  93 N5        30.06R
GREENSBORO     LGT RAIN  50  49  96 NE7       30.05R FOG
WINSTON-SALEM  LGT RAIN  50  48  93 NE6       30.05F
RALEIGH-DURHAM RAIN      53  50  89 NE5       30.07R FOG
FORT BRAGG     LGT RAIN  56  54  95 NE6       30.04S
FAYETTEVILLE   LGT RAIN  57  56  96 N13       30.03R
BURLINGTON     LGT RAIN  51  49  92 CALM      30.08R
LAURINBURG     RAIN      58  57  97 NE6       30.05R FOG
$$

NCZ011-015-027-028-043-044-047-080-103-291200-
NORTHEASTERN NORTH CAROLINA

CITY           SKY/WX    TMP DP  RH WIND       PRES   REMARKS
ROCKY MT-WILSO LGT RAIN  54  52  93 N8        30.10R FOG
GREENVILLE     DRIZZLE   55  55 100 N9        30.08R
WASHINGTON     CLOUDY    57  55  95 N5        30.06R
ELIZABETH CITY CLOUDY    55  48  77 NE13      30.08R
MANTEO         CLOUDY    54  54 100 NE9       30.06R
CAPE HATTERAS  CLOUDY    57  57 100 VRB5      30.05R FOG
$$

NCZ078-087-090-091-093-098-101-291200-
SOUTHEASTERN NORTH CAROLINA

CITY           SKY/WX    TMP DP  RH WIND       PRES   REMARKS
LUMBERTON      CLOUDY    60  58  92 CALM      30.04R FOG
GOLDSBORO      RAIN      56  56 100 NE8       30.06R FOG
KENANSVILLE    LGT RAIN  58  58  99 N6        30.04S
NEW BERN       CLOUDY    61  58  90 NE3       30.05S FOG
CHERRY POINT     N/A     60  58  92 CALM      30.05R
BEAUFORT       CLOUDY    59  58  96 CALM      30.04R
JACKSONVILLE   CLOUDY    59  58  96 E6        30.02S
WILMINGTON     MOCLDY    59  59 100 SE3       30.04R FOG
$$



USA.gov is the U.S. government's official web portal to all federal, state and local government web resources and services.